Overview Statistics Trail Chart Weather Telemetry Raw packets
 

This is the latest recevied weather packets stored in our database for station/object KG5MMT-15. If no packets are shown the sender has not sent any weather packets the latest 10 day(s).

<< 92 93 94 95 96 97 98 >>
Time Temp. Humidity Pressure Rain* Wind** Luminosity Snow
1788019077 26.67° C 34% 0 hPa 0 mm - - -
1788018777 26.11° C 34% 0 hPa 0 mm - - -
1788018477 26.11° C 38% 0 hPa 0 mm - - -
1788018177 26.11° C 36% 0 hPa 0 mm - - -
1788017877 26.11° C 38% 0 hPa 0 mm - - -
1788017577 26.11° C 38% 0 hPa 0 mm - - -
1788017277 26.11° C 39% 0 hPa 0 mm - - -
1788016977 25.56° C 41% 0 hPa 0 mm - - -
1788016677 25.56° C 41% 0 hPa 0 mm - - -
1788016377 25° C 44% 0 hPa 0 mm - - -
1788016077 24.44° C 44% 0 hPa 0 mm - - -
1788015777 24.44° C 44% 0 hPa 0 mm - - -
1788015477 23.89° C 41% 0 hPa 0 mm - - -
1788015177 23.33° C 44% 0 hPa 0 mm - - -
1788014877 22.78° C 46% 0 hPa 0 mm - - -
1788014577 21.67° C 48% 0 hPa 0 mm - - -
1788014277 20.56° C 62% 0 hPa 0 mm - - -
1788013977 20° C 64% 0 hPa 0 mm - - -
1788013677 19.44° C 61% 0 hPa 0 mm - - -
1788013377 18.89° C 70% 0 hPa 0 mm - - -
1788013077 18.33° C 67% 0 hPa 0 mm - - -
1788012777 18.33° C 72% 0 hPa 0 mm - - -
1788012477 17.78° C 74% 0 hPa 0 mm - - -
1788012177 17.22° C 76% 0 hPa 0 mm - - -
1788011877 16.67° C 77% 0 hPa 0 mm - - -

* Rain latest hour (hover to see other rain measurements)
** Current wind speed in m/s (hover to see current wind gust speed)